Regional Weather Roundup
Issued by NWS

Home | Current Version | Previous Version | Text Only | Print | Product List | Glossary Off
Versions: 1 2 3 4 5 6 7 8 9 10 11 12 13 14 15 16 17 18 19 20 21 22 23 24 25 26 27 28 29 30 31 32 33 34 35 36 37 38 39 40 41 42 43 44 45 46 47 48 49 50

000
ASUS43 KLOT 290512
RWRIL

ILLINOIS REGIONAL WEATHER ROUNDUP
NATIONAL WEATHER SERVICE CHICAGO/ROMEOVILLE IL
1200 AM CDT WED JUL 29 2015

NOTE: "FAIR" INDICATES FEW OR NO CLOUDS BELOW 12,000 FEET WITH NO
SIGNIFICANT WEATHER AND/OR OBSTRUCTIONS TO VISIBILITY.

* THESE STATIONS ARE NOT UNDER NWS QUALITY CONTROL. THEY ALSO MAY NOT
  REPORT WEATHER SUCH AS PRECIPITATION OR FOG.

ILZ001-002-007-009-015-016-024-290600-
NORTHWEST ILLINOIS

CITY           SKY/WX    TMP DP  RH WIND       PRES   REMARKS
MOLINE         CLOUDY    78  75  90 W3        29.94S HX  81
STERLING*      CLOUDY    73  72  94 CALM      29.96R
SAVANNA*       DRIZZLE   76  73  92 CALM      29.93F
$$

ILZ003-004-008-010-011-017-018-290600-
NORTH CENTRAL ILLINOIS

CITY           SKY/WX    TMP DP  RH WIND       PRES   REMARKS
ROCKFORD       CLOUDY    77  72  84 CALM      29.97R
FREEPORT*      CLOUDY    74  72  92 SW3       29.98F
ROCHELLE*      CLOUDY    74  73  96 CALM      29.97S THUNDER
DE KALB*       CLOUDY    76  70  80 CALM      29.97S
PERU*          CLOUDY    78  70  76 W17G23    29.98R THUNDER HX  80
$$

ILZ005-006-012>014-019>023-290600-
NORTHEAST ILLINOIS

CITY           SKY/WX    TMP DP  RH WIND       PRES   REMARKS
CHICAGO-OHARE  MOCLDY    77  73  87 S6        29.94R
CHICAGO-MIDWAY MOCLDY    83  73  72 S3        29.95R HX  89
AURORA         MOCLDY    76  72  87 NW6       29.97R
LANSING*       CLEAR     76  71  83 CALM      29.96R
JOLIET*        PTCLDY    78  75  92 CALM      29.95R HX  80
WAUKEGAN       PTCLDY    72  71  97 CALM      29.95R
DUPAGE AIRPORT MOCLDY    77  73  87 S3        29.95R
KANKAKEE*      PTCLDY    76  75  96 CALM      29.97R
WHEELING       PTCLDY    78  73  84 S3        29.96R HX  81
MORRIS*        MOCLDY    76  74  93 S5        29.94R
ROMEOVILLE*    MOCLDY    77  73  87 S6        29.96R
NORTHERLY ISL    N/A     81  72  74 S1          N/A  HX  85
$$

LMZ740>746-290600-
SOUTHERN LAKE MICHIGAN

STATION/POSITION SKY/WX   TEMP    WIND        PRES    VSBY  WAVE
                          AIR SEA DIR/SP/G                  HT/PER
                          (F)     (DEG/KT/KT) (MB)    (MI)  (FT/S)
HARRISON CRIB              82     170/  8/  9   N/A
BURNHAM HARBOR             81     170/  2/  5   N/A
CALUMET HARBOR             83     150/  2/  3   N/A
BURNS HARBOR               80     200/  6/  6 1014.6F
MICHIGAN CITY              81     130/  5/  7   N/A
MICHIGAN CITY 6N           77 76  180/  6/  6   N/A           0
ST. JOSEPH                 78 77  200/  6/  8   N/A           1
$$

ILZ025>027-034>036-040-047-049-050-058-095>099-290600-
WEST-CENTRAL ILLINOIS

CITY           SKY/WX    TMP DP  RH WIND       PRES   REMARKS
QUINCY         CLEAR     81  79  94 SW3       29.95S HX  90
GALESBURG*     CLOUDY    79  78  95 SE5       29.96S THUNDER HX  84
MACOMB*        MOCLDY    80  78  94 N3        29.98R HX  86
JACKSONVILLE*  CLEAR     82  79  92 SE6       29.94F HX  92
PITTSFIELD*    CLEAR     82  79  88 S3        29.96S HX  92
$$

ILZ028>032-037-038-041>044-048-051>054-059>061-290600-
CENTRAL ILLINOIS

CITY           SKY/WX    TMP DP  RH WIND       PRES   REMARKS
PONTIAC        MOCLDY    75  73  95 CALM      29.98R
BLOOMINGTON    PTCLDY    75  73  93 S6        29.99R
DECATUR        PTCLDY    76  73  91 SE3       29.97S
PEORIA         MOCLDY    81  72  74 S7        29.96S HX  85
LACON*         MOCLDY    76  71  86 S5        29.94F
LINCOLN*       PTCLDY    76  72  87 CALM      29.95S
SPRINGFIELD    CLEAR     81  76  84 S7        29.95F HX  87
TAYLORVILLE    PTCLDY    77  73  88 S5        29.97F
$$

ILZ033-039-045-046-055>057-062-063-290600-
EAST-CENTRAL ILLINOIS

CITY           SKY/WX    TMP DP  RH WIND       PRES   REMARKS
CHAMPAIGN      PTCLDY    73  71  93 S5        29.98R
DANVILLE*      PTCLDY    72  72  99 CALM      29.95S FOG
RANTOUL*       PTCLDY    77  75  93 CALM      29.98R
MATTOON        PTCLDY    77  69  76 SW5       29.98R
PARIS*         CLEAR     72  72  99 CALM      29.98S FOG
$$

ILZ079-100>102-290600-
SOUTHWEST ILLINOIS

CITY           SKY/WX    TMP DP  RH WIND       PRES   REMARKS
ALTON          PTCLDY    76  75  96 CALM      29.98R
BELLEVILLE     MOCLDY    78  78 100 SE1       29.96R HX  82
CAHOKIA*       PTCLDY    80  76  87 CALM      29.97R HX  86
SPARTA*        MOCLDY    78  75  90 CALM      29.99R HX  81
$$

ILZ064>066-069>071-074>076-080>082-084>086-088>090-092>094-290600-
SOUTH-CENTRAL ILLINOIS

CITY           SKY/WX    TMP DP  RH WIND       PRES   REMARKS
CARBONDALE     CLOUDY    79  76  90 S3        29.98R HX  83
CAIRO*         MOCLDY    79  74  85 SE3       29.99S HX  83
EFFINGHAM*     PTCLDY    77  74  88 CALM      29.99R
MARION         CLOUDY    79  75  89 S7        29.99R HX  82
MT. VERNON     MOCLDY    77  70  78 S3        30.00R
CENTRALIA*     MOCLDY    78  73  85 CALM      29.99R HX  81
SALEM*         MOCLDY    81  75  83 CALM      29.98R HX  87
METROPOLIS*    CLOUDY    76  76 100 CALM      30.00R
$$

ILZ067-068-072-073-078-083-087-091-290600-
SOUTHEAST ILLINOIS

CITY           SKY/WX    TMP DP  RH WIND       PRES   REMARKS
LAWRENCEVILLE  MOCLDY    77  75  93 SW5       29.98R
FLORA*         MOCLDY    75  74  95 CALM      29.98R
FAIRFIELD*     MOCLDY    75  74  96 CALM      29.97R
HARRISBURG*    MOCLDY    76  76 100 CALM      29.99S
ROBINSON*      MOCLDY    75  74  97 CALM      29.98R FOG
CARMI*         MOCLDY    73  69  86 MISG      29.97S
$$

ABBREVIATIONS USED IN REMARKS
   TC - TEMPERATURE IN CELSIUS
  WCI - WIND CHILL INDEX
   HX - HEAT INDEX
  VSB - VISIBILITY
$$




USA.gov is the U.S. government's official web portal to all federal, state and local government web resources and services.